Home > Weather > Tampere > Past weeks

Flag for Finland Weather for the Past 2 Weeks in Tampere, Finland

Now
28 °F

Sunny.


Feels Like: 22 °F
Forecast: 28 / 34 °F
Wind: 6 mph from South

Location: Tampere / Pirkkala

Current Time: Feb 13, 2016 at 11:34:07 AM

Latest Report: Feb 13, 2016 at 11:20 AM


Visibility: 10 mi

Pressure: 29.56 "Hg

Humidity: 100%

Dew point: 28 °F

Location of TampereLocation

Historic Weather in Tampere — Graph

°F

Tampere Temperature Yesterday

Maximum temperature yesterday: 34 °F (at 12:50 AM)
Minimum temperature yesterday: 30 °F (at 9:50 PM)
Average temperature yesterday: 32 °F

High & Low Weather Summary for the Past Weeks

 TemperatureHumidityPressure
High39 °F (Jan 30, 12:50 AM)100% (Jan 29, 10:20 AM)29.56 "Hg (Jan 29, 10:20 AM)
Low18 °F (Feb 3, 9:20 AM)75% (Jan 31, 1:50 PM)28.65 "Hg (Feb 2, 7:20 AM)
Average32 °F95%29.16 "Hg
* Reported Jan 29 10:20 AM — Feb 13 10:20 AM, Tampere, Weather by CustomWeather, © 2016

Note: Actual official high and low records may vary slightly from our data, if they occured in-between our weather recording intervals... More about our weather records

Advertising

Tampere Weather History for the Previous 24 Hours

 ConditionsComfort  
Time TempWeatherWind HumidityBarometerVisibility
10:20 AM
Sat, Feb 13
28 °FSunny.6 mph93%29.56 "Hg10 mi
9:50 AM28 °FPassing clouds.7 mph100%29.53 "HgN/A
9:20 AM28 °FSunny.7 mph100%29.53 "Hg10 mi
8:50 AM28 °FSnow flurries. Passing clouds.5 mph100%29.53 "HgN/A
8:20 AM28 °FSnow flurries. Broken clouds.5 mph100%29.50 "Hg3 mi
7:50 AM28 °FLight snow. Overcast.6 mph100%29.50 "HgN/A
7:20 AM28 °FLight snow. Mostly cloudy.7 mph100%29.50 "Hg3 mi
6:50 AM28 °FLight mixture of precip. Overcast.6 mph93%29.50 "HgN/A
6:20 AM28 °FClear.6 mph100%29.47 "Hg10 mi
5:50 AM28 °FClear.6 mph100%29.47 "Hg10 mi
5:20 AM30 °FSnow flurries. Mostly cloudy.6 mph93%29.47 "HgN/A
4:20 AM28 °FPartly cloudy.8 mph100%29.47 "HgN/A
3:20 AM28 °FPartly cloudy.8 mph100%29.45 "HgN/A
2:50 AM28 °FOvercast.9 mph100%29.45 "HgN/A
2:20 AM28 °FPassing clouds.8 mph100%29.45 "HgN/A
1:50 AM28 °FClear.8 mph100%29.45 "Hg10 mi
1:20 AM28 °FPartly cloudy.6 mph93%29.42 "HgN/A
12:50 AM28 °FMostly cloudy.10 mph93%29.42 "HgN/A
12:20 AM28 °FLight snow. Mostly cloudy.10 mph93%29.42 "HgN/A
11:20 PM
Fri, Feb 12
30 °FSnow flurries. Mostly cloudy.13 mph93%29.39 "HgN/A
10:50 PM30 °FMostly cloudy.14 mph93%29.36 "HgN/A
10:20 PM30 °FSnow flurries. Overcast.13 mph100%29.33 "HgN/A
9:50 PM30 °FSnow flurries. Overcast.14 mph100%29.33 "Hg4 mi
9:20 PM32 °FLight snow. Overcast.15 mph100%29.30 "HgN/A
8:50 PM32 °FLight snow. Partly cloudy.10 mph100%29.30 "Hg2 mi
8:20 PM32 °FLight snow. Partly cloudy.10 mph100%29.27 "Hg2 mi
7:50 PM32 °FLight snow. Overcast.9 mph100%29.24 "Hg2 mi
7:20 PM32 °FLight mixture of precip. Overcast.8 mph100%29.24 "Hg1 mi
6:50 PM32 °FLight snow. Overcast.8 mph100%29.24 "Hg2 mi
6:20 PM32 °FLight mixture of precip. Partly cloudy.7 mph100%29.21 "Hg2 mi
5:50 PM32 °FSnow flurries. Partly cloudy.8 mph100%29.21 "HgN/A
5:20 PM32 °FSnow flurries. Overcast.9 mph100%29.21 "Hg6 mi
4:50 PM32 °FLight snow. More clouds than sun.8 mph100%29.21 "Hg2 mi
4:20 PM32 °FLight snow. Broken clouds.8 mph100%29.21 "Hg1 mi
3:50 PM32 °FLight snow. Broken clouds.9 mph100%29.21 "Hg2 mi
3:20 PM32 °FLight snow. Broken clouds.8 mph100%29.21 "Hg1 mi
2:50 PM32 °FLight snow. Broken clouds.10 mph100%29.21 "Hg1 mi
2:20 PM32 °FLight snow. Broken clouds.10 mph100%29.21 "Hg1 mi
1:50 PM32 °FLight snow. Broken clouds.9 mph100%29.21 "Hg1 mi
1:20 PM32 °FLight snow. Broken clouds.9 mph100%29.21 "Hg4 mi
12:50 PM32 °FLight snow. Broken clouds.10 mph100%29.21 "Hg2 mi
12:20 PM32 °FLight snow. Broken clouds.10 mph100%29.21 "HgN/A
11:50 AM32 °FLight snow. Broken clouds.12 mph100%29.24 "HgN/A
11:20 AM32 °FLight snow. Partly sunny.12 mph100%29.24 "Hg4 mi
Weather by CustomWeather, © 2016

See weather overviewHow to use our weather pages